Location: Newark
(30.0333°N, 31.2167°E)
Time: 19:31:12
(UTC+00:00)

Tiros 1 - Pass Details

Date: 01 February 2020
Orbit: 631 x 664 km, 48.4° (Epoch: 22 February)

Event Time Altitude Azimuth Distance (km) Brightness Sun altitude
Rises 08:55:25 0° 279° (W) 2,918 10.3 39.6°
Reaches altitude 10° 08:58:45 10° 304° (NW) 2,017 9.4 39.9°
Maximum altitude 09:01:17 14° 338° (NNW) 1,747 9.1 40.1°
Drops below altitude 10° 09:03:51 10° 11° (N) 2,030 9.4 40.3°
Sets 09:07:14 0° 36° (NE) 2,949 10.3 40.5°
